Location: Brompton
(51.4000°N, 0.5333°E)
Time: 16:29:07
(UTC+00:00)

Cosmos 1536 - Pass Details

Date: 30 September 2021
Orbit: 539 x 558 km, 82.5° (Epoch: 24 October)

Event Time Altitude Azimuth Distance (km) Brightness Sun altitude
Rises 01:58:46 0° 4° (N) 2,713 7.0 -34.3°
Reaches altitude 10° 02:02:00 10° 32° (NNE) 1,814 6.2 -33.9°
Maximum altitude 02:03:56 13° 62° (ENE) 1,615 5.9 -33.7°
Enters shadow 02:05:21 11° 84° (E) 1,721 5.8 -33.6°
